NOAA 16 DEB

Satellite information

Favourite Embed

Satellite Type and Status

DEBRISIN ORBIT

Key statistics

Satellite NOAA 16 DEB at a glance.

Uptime

9109

Days in orbit

Revolutions

≈ 14.2

Per day

Orbit

SSO

Sun Synchronous Orbit

Inclination

98.6

Latest

Satellite identification and parameters

Extended collection of information and parameters for NOAA 16 DEB.

Object identification

Identified? True

Debris? True

Object name: NOAA 16 DEB

International designator: 2000-055JX

Object number (NORAD): 41378

Object ID (CCSDS): 41378

Country: UNITED STATES OF AMERICA (US)

Current information (Y/N): Y

RCS size: SMALL

Orbital parameters

Period: 101.591 minutes

Inclination: 98.6472 deg

SMA: 7212.127 km

Apoapsis: 862.898 km

Periapsis: 805.085 km

RAAN: 256.9865 deg

Eccentricy: 0.00400803

Argument of periapsis: 264.9004 deg

Mean anomaly: 94.7596 deg

Mean motion: 14.17449956 rev/day

Mean motion (dot): 0.00002661 rev/day2

B* drag term: 0.0013233853 1/REarth

Two-line elements (TLE)

Creation date: Aug. 27, 2025, 12:18 p.m.

Reference frame: TEME

Reference center: EARTH

Epoch: Aug. 27, 2025, 6:46 a.m. UTC

TLE line 0: 0 NOAA 16 DEB

TLE line 1: 1 41378U 00055JX 25239.28225748 .00002661 00000-0 13234-2 0 9992

TLE line 2: 2 41378 98.6472 256.9865 0040080 264.9004 94.7596 14.17449956494679

Live tracking on map

Real-time ground track for satellite NOAA 16 DEB.

In-orbit conjunctions

A list of the most updated potential collisions computed for object NOAA 16 DEB.

Target Orbit TCA Probability of collision Miss distance Type
SPOT 3 SSO 2025-05-10 19:40:19 0.0005182556 563.0 (m) PAYLOAD
COSMOS 2263 LEO 2024-09-12 11:34:25 0.000461174 95.0 (m) PAYLOAD

Associated space launch

The NOAA K, L and M POES satellites begin the fifth generation of improved environmental monitoring in support of NOAA missions. The instrument payload has significant improvements and additions/deletions. The instrument changes have effected the spacecraft subsystems and data formats.

NOAA 16 DEB was lifted into orbit during the mission ‘Titan II SLV | NOAA 16’, on board a Titan II SLV space rocket.

The launch took place on Sept. 21, 2000, 10:22 a.m. from Space Launch Complex 4W.

For more information about the launch, click the button.

Launch to space Titan II SLV | NOAA 16
Titan II SLV | NOAA 16

Agency: N/A

Status: Launch Successful

Launch date: Sept. 21, 2000, 10:22 a.m. UTC

Rocket: Titan II SLV

Launch pad: Space Launch Complex 4W

Location: Vandenberg SFB, CA, USA

...

Latest news about this satellite

There are no fresh news available about this satellite. Check back as we update our databases every day.


Newsletter sign-up

Weekly statistics, charts and insights to help you stay on top of the space industry.